Rutherfordton, NC

9:49 AM EST on February 06, 2016 (GMT -0500)
Rutherford County-Marchman

Weather History for KFQD - May, 2014

Change the Weather History Date:

Thursday, May 29, 2014

  Actual Average (KAVL) Record (KAVL)
Temperature  
Mean Temperature 74 °F 66 °F  
Max Temperature 87 °F 78 °F 92 °F (1941)
Min Temperature 62 °F 55 °F 40 °F (1894)
Degree Days  
Heating Degree Days 0 2  
Month to date heating degree days 107  
Since 1 July heating degree days 4179  
Cooling Degree Days 10 3  
Month to date cooling degree days 47  
Year to date cooling degree days 55  
Growing Degree Days 24 (Base 50)    
Moisture  
Dew Point 64 °F    
Average Humidity 77    
Maximum Humidity 99    
Minimum Humidity 42    
Precipitation  
Precipitation 0.54 in 0.12 in 1.94 in (1976)
Month to date precipitation 3.40  
Year to date precipitation 17.99  
Snow  
Snow 0.00 in 0.00 in 0.00 in ()
Month to date snowfall 0.0  
Since 1 July snowfall 9.9  
Snow Depth -    
Sea Level Pressure  
Sea Level Pressure 30.06 in    
Wind  
Wind Speed 3 mph (WSW)    
Max Wind Speed 26 mph    
Max Gust Speed 39 mph    
Visibility 9 miles    
Events Rain , Thunderstorm    
T = Trace of Precipitation, MM = Missing Value Source: NWS Daily Summary

Daily Weather History Graph

Daily Weather History Graph

Search for Another Location

Airport or City:

Trip Planner

Search our weather history database for the weather conditions in past years. The results will help you decide how hot, cold, wet, or windy it might be!

Date:

Astronomy

May. 29, 2014 Rise Set
Actual Time 6:14 AM EDT 8:35 PM EDT
Civil Twilight 5:45 AM EDT 9:04 PM EDT
Nautical Twilight 5:09 AM EDT 9:40 PM EDT
Astronomical Twilight 4:30 AM EDT 10:20 PM EDT
Moon 7:05 AM EDT (5/29) 9:26 PM EDT (5/29)
Length of Visible Light 15h 19m
Length of Day
14h 20m
New Moon, 1% of the Moon is Illuminated
May 29
New Moon
Jun 5
First Quarter
Jun 13
Full
Jun 19
Last Quarter
Jun 27
New

Hourly Weather History & Observations

Time (EDT) Temp. Heat Index Dew Point Humidity Pressure Visibility Wind Dir Wind Speed Gust Speed Precip Events Conditions
12:15 AM 67.5 °F - 63.7 °F 88% 30.06 in 10.0 mi Calm Calm - N/A   Clear
12:35 AM 66.0 °F - 63.0 °F 90% 30.06 in 10.0 mi SSW 9.2 mph - N/A   Clear
12:55 AM 66.6 °F - 63.5 °F 90% 30.06 in 10.0 mi Calm Calm - N/A   Clear
1:15 AM 65.1 °F - 62.6 °F 92% 30.06 in 10.0 mi Calm Calm - N/A   Clear
1:35 AM 65.7 °F - 63.0 °F 91% 30.06 in 10.0 mi Calm Calm - N/A   Clear
1:55 AM 65.8 °F - 63.5 °F 92% 30.05 in 10.0 mi Calm Calm - N/A   Clear
2:15 AM 64.8 °F - 63.1 °F 94% 30.05 in 10.0 mi NNE 3.5 mph - N/A   Clear
2:35 AM 64.0 °F - 62.8 °F 96% 30.04 in 7.0 mi Calm Calm - N/A   Clear
2:55 AM 63.3 °F - 62.4 °F 97% 30.03 in 7.0 mi Calm Calm - N/A   Clear
3:15 AM 63.5 °F - 62.2 °F 96% 30.02 in 7.0 mi Calm Calm - N/A   Clear
3:35 AM 62.4 °F - 61.7 °F 97% 30.02 in 5.0 mi Calm Calm - N/A   Clear
3:55 AM 63.3 °F - 61.9 °F 95% 30.02 in 7.0 mi Calm Calm - N/A   Clear
4:15 AM 62.8 °F - 61.9 °F 97% 30.02 in 7.0 mi NNW 4.6 mph - N/A   Clear
4:35 AM 62.4 °F - 61.7 °F 97% 30.02 in 7.0 mi NW 6.9 mph - N/A   Clear
5:15 AM 63.7 °F - 61.5 °F 93% 30.03 in 10.0 mi NNW 3.5 mph - N/A   Clear
5:35 AM 62.2 °F - 60.8 °F 95% 30.03 in 7.0 mi NW 8.1 mph - N/A   Clear
5:55 AM 63.3 °F - 61.3 °F 93% 30.03 in 10.0 mi North 6.9 mph - N/A   Clear
6:15 AM 64.4 °F - 61.0 °F 89% 30.04 in 10.0 mi North 4.6 mph - N/A   Clear
6:35 AM 64.2 °F - 61.0 °F 89% 30.05 in 10.0 mi NW 6.9 mph - N/A   Clear
6:55 AM 62.6 °F - 60.8 °F 94% 30.06 in 7.0 mi Calm Calm - N/A   Clear
7:15 AM 62.8 °F - 61.0 °F 94% 30.06 in 7.0 mi West 5.8 mph - N/A   Clear
7:35 AM 64.8 °F - 61.5 °F 89% 30.07 in 10.0 mi NNE 4.6 mph - N/A   Scattered Clouds
7:55 AM 67.1 °F - 61.5 °F 82% 30.07 in 10.0 mi North 5.8 mph - N/A   Clear
8:15 AM 69.4 °F - 62.6 °F 79% 30.08 in 10.0 mi Calm Calm - N/A   Clear
8:35 AM 71.4 °F - 63.7 °F 76% 30.08 in 10.0 mi North 3.5 mph - N/A   Scattered Clouds
8:55 AM 73.6 °F - 63.0 °F 69% 30.09 in 10.0 mi Calm Calm - N/A   Clear
9:15 AM 75.2 °F - 63.9 °F 68% 30.09 in 10.0 mi Calm Calm - N/A   Scattered Clouds
9:35 AM 75.7 °F - 64.6 °F 68% 30.10 in 10.0 mi Calm Calm - N/A   Scattered Clouds
9:55 AM 77.2 °F - 64.9 °F 66% 30.10 in 10.0 mi Calm Calm - N/A   Scattered Clouds
10:15 AM 78.3 °F - 63.7 °F 61% 30.10 in 10.0 mi Calm Calm - N/A   Clear
10:35 AM 79.7 °F - 64.8 °F 60% 30.10 in 10.0 mi NNE 5.8 mph - N/A   Clear
10:55 AM 81.0 °F 82.6 °F 64.2 °F 57% 30.11 in 10.0 mi NNE 4.6 mph - N/A   Clear
11:15 AM 81.7 °F 83.6 °F 65.7 °F 58% 30.10 in 10.0 mi East 3.5 mph - N/A   Clear
11:35 AM 82.0 °F 83.8 °F 64.8 °F 56% 30.10 in 10.0 mi Calm Calm - N/A   Clear
11:55 AM 82.4 °F 84.2 °F 65.3 °F 56% 30.10 in 10.0 mi SSE 4.6 mph - N/A   Clear
12:15 PM 83.7 °F 84.9 °F 63.5 °F 51% 30.10 in 10.0 mi South 6.9 mph - N/A   Clear
12:35 PM 83.5 °F 84.5 °F 62.8 °F 50% 30.10 in 10.0 mi SSE 4.6 mph - N/A   Clear
12:55 PM 84.9 °F 85.9 °F 63.3 °F 48% 30.09 in 10.0 mi WNW 4.6 mph - N/A   Scattered Clouds
1:15 PM 84.7 °F 85.6 °F 63.1 °F 48% 30.09 in 10.0 mi SW 4.6 mph - N/A   Scattered Clouds
1:35 PM 85.8 °F 87.4 °F 64.4 °F 49% 30.08 in 10.0 mi South 8.1 mph - N/A   Scattered Clouds
2:15 PM 86.4 °F 86.3 °F 61.0 °F 42% 30.06 in 10.0 mi SSE 3.5 mph - N/A   Scattered Clouds
2:35 PM 85.8 °F 86.6 °F 62.6 °F 46% 30.06 in 5.0 mi South 8.1 mph - N/A   Haze
2:55 PM 87.4 °F 87.7 °F 62.1 °F 42% 30.05 in 10.0 mi South 6.9 mph - N/A   Scattered Clouds
3:15 PM 86.2 °F 86.3 °F 61.3 °F 43% 30.04 in 10.0 mi South 5.8 mph - N/A   Clear
3:35 PM 86.5 °F 86.8 °F 61.9 °F 43% 30.02 in 10.0 mi South 6.9 mph - N/A   Clear
3:55 PM 86.2 °F 86.6 °F 61.7 °F 44% 30.02 in 10.0 mi South 4.6 mph - N/A   Scattered Clouds
4:15 PM 86.2 °F 86.6 °F 61.7 °F 44% 30.02 in 10.0 mi WSW 3.5 mph - N/A   Scattered Clouds
4:35 PM 85.1 °F 85.2 °F 61.0 °F 44% 30.01 in 10.0 mi South 3.5 mph - N/A   Overcast
4:55 PM 85.3 °F 85.4 °F 61.0 °F 44% 30.01 in 10.0 mi Calm Calm - N/A   Mostly Cloudy
5:15 PM 84.0 °F 85.8 °F 65.1 °F 53% 30.02 in 10.0 mi WNW 10.4 mph 19.6 mph N/A   Mostly Cloudy
5:35 PM 72.9 °F - 66.2 °F 80% 30.02 in 5.0 mi North 15.0 mph 21.9 mph 0.01 in Rain , Thunderstorm Thunderstorms and Rain
5:55 PM 69.6 °F - 65.7 °F 87% 30.05 in 2.5 mi South 26.5 mph 39.1 mph 0.06 in Rain , Thunderstorm Heavy Thunderstorms and Rain
6:15 PM 68.9 °F - 62.2 °F 79% 30.05 in 0.8 mi SW 12.7 mph 26.5 mph 0.10 in Rain , Thunderstorm Heavy Thunderstorms and Rain
6:35 PM 68.5 °F - 62.2 °F 80% 30.05 in 1.2 mi SW 4.6 mph 19.6 mph 0.35 in Rain , Thunderstorm Heavy Thunderstorms and Rain
6:55 PM 67.8 °F - 65.3 °F 92% 30.03 in 2.5 mi NNW 3.5 mph - 0.46 in Rain Light Rain
7:15 PM 69.8 °F - 65.3 °F 86% 30.05 in 10.0 mi North 4.6 mph - 0.01 in Thunderstorm Thunderstorm
7:35 PM 70.2 °F - 67.6 °F 92% 30.07 in 10.0 mi South 15.0 mph - 0.01 in Thunderstorm Thunderstorm
7:55 PM 67.6 °F - 66.6 °F 96% 30.07 in 10.0 mi ESE 5.8 mph - 0.01 in   Scattered Clouds
8:15 PM 68.0 °F - 66.4 °F 95% 30.07 in 10.0 mi Calm Calm - N/A   Clear
8:35 PM 68.5 °F - 66.0 °F 92% 30.09 in 7.0 mi ENE 3.5 mph - N/A Rain Light Rain
8:55 PM 68.0 °F - 66.2 °F 94% 30.09 in 10.0 mi East 4.6 mph - N/A Rain Light Rain
9:15 PM 67.8 °F - 66.4 °F 95% 30.09 in 10.0 mi Calm Calm - 0.01 in   Scattered Clouds
9:55 PM 67.3 °F - 66.9 °F 99% 30.10 in 5.0 mi East 3.5 mph - 0.01 in   Overcast
10:15 PM 68.0 °F - 66.7 °F 96% 30.11 in 10.0 mi Calm Calm - N/A   Light Drizzle
10:35 PM 68.0 °F - 66.4 °F 95% 30.12 in 10.0 mi Calm Calm - N/A   Scattered Clouds
10:55 PM 68.4 °F - 66.2 °F 93% 30.12 in 10.0 mi Calm Calm - N/A   Mostly Cloudy
11:15 PM 67.1 °F - 66.4 °F 98% 30.13 in 5.0 mi Calm Calm - N/A   Overcast
11:35 PM 66.4 °F - 66.2 °F 99% 30.13 in 1.2 mi SSW 10.4 mph - N/A   Overcast